User: anonymous
Location: Vancouver
(49.2500°N, 123.1330°W)
Time: 02:41:38
(UTC-07:00)
Language:

Vanguard 2 Rocket - Orbit

View from above orbital plane
View from above orbital plane
View from above satellite
View from above satellite

Ground track
Ground track

The orbit data is extracted from the following two-line orbital elements,

1 00012U 59001B   14260.73232584  .00000464  00000-0  25615-3 0  9104
2 00012 032.9077 134.2159 1671380 201.4407 150.7223 11.43375253282020
Epoch (UTC): 17 September 2014 17:34:32
Eccentricity: 0.1671380
inclination: 32.9077°
perigee height: 554 km
apogee height: 3336 km
right ascension of ascending node: 134.2159°
argument of perigee: 201.4407°
revolutions per day: 11.43375253
mean anomaly at epoch: 150.7223°
orbit number at epoch: 28202

The dashed part of the orbit path shows where the satellite is in the earth's shadow,  

DLR